Location: Bremen
(53.0793°N, 8.8017°E)
Time: 23:37:15
(UTC+01:00)

Explorer 7 - Pass Details

Date: 29 November 2021
Orbit: 483 x 674 km, 50.3° (Epoch: 17 January)

Event Time Altitude Azimuth Distance (km) Brightness Sun altitude
Rises 12:33:21 0° 277° (W) 2,609 10.3 15.2°
Reaches altitude 10° 12:35:42 10° 268° (W) 1,701 9.5 15.2°
Maximum altitude 12:39:10 33° 203° (SSW) 831 9.3 15.1°
Drops below altitude 10° 12:42:34 10° 137° (SE) 1,662 10.0 15.1°
Sets 12:44:51 0° 128° (SE) 2,539 10.7 15.0°
